Weather History for Killeen/Ft Hood, TX

Change the Weather History Date:

Thursday, March 21, 2013

  Actual Average Record
Temperature  
Mean Temperature 66 °F -  
Max Temperature 78 °F 69 °F 87 °F (1997)
Min Temperature 53 °F 51 °F 42 °F (2002)
Growing Degree Days 16 (Base 50)    
Moisture  
Dew Point 49 °F    
Average Humidity 57    
Maximum Humidity 76    
Minimum Humidity 44    
Precipitation  
Precipitation 0.00 in - - ()
Sea Level Pressure  
Sea Level Pressure 29.80 in    
Wind  
Wind Speed 9 mph (SE)    
Max Wind Speed 24 mph    
Max Gust Speed 34 mph    
Visibility 10 miles    
Events      
Averages and records for this station are not official NWS values.
T = Trace of Precipitation, MM = Missing Value Source: NWS Daily Summary

Daily Weather History Graph

Daily Weather History Graph

Search for Another Location

Airport:

Trip Planner

Search our weather history database for the weather conditions in past years. The results will help you decide how hot, cold, wet, or windy it might be!

Date:

Astronomy

Mar. 21, 2013 Rise Set
Actual Time 7:33 AM CDT 7:43 PM CDT
Civil Twilight 7:08 AM CDT 8:07 PM CDT
Nautical Twilight 6:40 AM CDT 8:35 PM CDT
Astronomical Twilight 6:12 AM CDT 9:04 PM CDT
Moon 2:32 PM CDT (3/21) 3:36 AM CDT (3/21)
Length of Visible Light 12h 58m
Length of Day
12h 10m
Waxing Gibbous, 69% of the Moon is Illuminated
Mar 21
Waxing Gibbous
Mar 27
Full
Apr 2
Last Quarter
Apr 10
New
Apr 18
First Quarter

Hourly Weather History & Observations

Time (CDT) Temp. Dew Point Humidity Pressure Visibility Wind Dir Wind Speed Gust Speed Precip Events Conditions
12:56 AM 55.9 °F 34.0 °F 44% 30.11 in 10.0 mi East 3.5 mph - N/A   Clear
1:56 AM 54.0 °F 35.1 °F 49% 30.08 in 10.0 mi East 5.8 mph - N/A   Clear
2:56 AM 53.1 °F 37.0 °F 55% 30.05 in 10.0 mi ESE 3.5 mph - N/A   Mostly Cloudy
3:56 AM 53.1 °F 36.0 °F 52% 30.03 in 10.0 mi ESE 4.6 mph - N/A   Overcast
4:56 AM 55.0 °F 37.9 °F 53% 30.00 in 10.0 mi SE 4.6 mph - N/A   Overcast
5:56 AM 55.9 °F 39.0 °F 53% 29.98 in 10.0 mi SSE 10.4 mph - N/A   Overcast
6:56 AM 57.0 °F 43.0 °F 59% 29.88 in 10.0 mi SSE 11.5 mph - N/A   Mostly Cloudy
7:56 AM 55.9 °F 44.1 °F 64% 29.89 in 10.0 mi SSE 8.1 mph - N/A   Clear
9:56 AM 62.1 °F 48.9 °F 62% 29.86 in 10.0 mi SSE 13.8 mph - N/A   Clear
10:56 AM 68.0 °F 48.9 °F 50% 29.83 in 10.0 mi SSE 24.2 mph 32.2 mph N/A   Partly Cloudy
11:56 AM 66.0 °F 52.0 °F 60% 29.82 in 10.0 mi South 16.1 mph 34.5 mph N/A   Overcast
12:56 PM 69.1 °F 54.0 °F 58% 29.77 in 10.0 mi South 15.0 mph 25.3 mph N/A   Overcast
1:56 PM 70.0 °F 54.0 °F 57% 29.72 in 10.0 mi SSE 20.7 mph 31.1 mph N/A   Overcast
2:56 PM 71.1 °F 55.0 °F 57% 29.68 in 10.0 mi SSE 15.0 mph 20.7 mph N/A   Overcast
3:56 PM 73.0 °F 55.0 °F 53% 29.65 in 10.0 mi SSE 17.3 mph 26.5 mph N/A   Overcast
4:56 PM 75.0 °F 55.9 °F 51% 29.60 in 10.0 mi SSE 16.1 mph 23.0 mph N/A   Overcast
5:56 PM 78.1 °F 57.0 °F 48% 29.59 in 10.0 mi SSE 15.0 mph 24.2 mph N/A   Mostly Cloudy
6:56 PM 75.0 °F 55.9 °F 51% 29.61 in 10.0 mi SSE 13.8 mph - N/A   Overcast
7:56 PM 73.0 °F 57.0 °F 57% 29.68 in 10.0 mi SSE 11.5 mph - N/A   Clear
8:56 PM 71.1 °F 57.0 °F 61% 29.62 in 10.0 mi SE 8.1 mph - N/A   Clear
9:56 PM 68.0 °F 57.9 °F 70% 29.62 in 10.0 mi SE 10.4 mph - N/A   Clear
10:56 PM 66.9 °F 59.0 °F 76% 29.70 in 10.0 mi SE 10.4 mph - N/A   Clear
11:56 PM 66.9 °F 59.0 °F 76% 29.70 in 10.0 mi SSE 11.5 mph - N/A   Partly Cloudy